Weather History for KSPB - March, 2012

Change the Weather History Date:

Tuesday, March 13, 2012

  Actual Average Record
Temperature  
Mean Temperature 37 °F -  
Max Temperature 44 °F - 68 °F (2005)
Min Temperature 29 °F - 26 °F (2009)
Degree Days  
Heating Degree Days 28    
Month to date heating degree days 297  
Since 1 July heating degree days 3906  
Cooling Degree Days 0    
Month to date cooling degree days 0  
Year to date cooling degree days 0  
Moisture  
Dew Point 34 °F    
Average Humidity 85    
Maximum Humidity 100    
Minimum Humidity 70    
Precipitation  
Precipitation 0.13 in - 0.96 in (2011)
Month to date precipitation 2.27  
Year to date precipitation 14.19  
Sea Level Pressure  
Sea Level Pressure 29.69 in    
Wind  
Wind Speed 7 mph (South)    
Max Wind Speed 18 mph    
Max Gust Speed 24 mph    
Visibility 10 miles    
Events Rain    
T = Trace of Precipitation, MM = Missing Value Source: NWS Daily Summary

Daily Weather History Graph

Daily Weather History Graph

Search for Another Location

Airport or City:

Trip Planner

Search our weather history database for the weather conditions in past years. The results will help you decide how hot, cold, wet, or windy it might be!

Date:

Astronomy

Mar. 13, 2012 Rise Set
Actual Time 7:26 AM PDT 7:15 PM PDT
Civil Twilight 6:57 AM PDT 7:45 PM PDT
Nautical Twilight 6:22 AM PDT 8:19 PM PDT
Astronomical Twilight 5:47 AM PDT 8:55 PM PDT
Moon 1:13 AM PDT (3/13) 10:24 AM PDT (3/13)
Length of Visible Light 12h 48m
Length of Day
11h 48m
Waning Gibbous, 64% of the Moon is Illuminated
Mar 13
Waning Gibbous
Mar 14
Last Quarter
Mar 22
New
Mar 30
First Quarter
Apr 6
Full

Hourly Weather History & Observations

Time (PDT) Temp. Windchill Dew Point Humidity Pressure Visibility Wind Dir Wind Speed Gust Speed Precip Events Conditions
12:53 AM 37.0 °F 34.5 °F 35.1 °F 93% 29.43 in 10.0 mi SE 3.5 mph - 0.02 in Rain Light Rain
1:11 AM 37.4 °F 34.9 °F 35.6 °F 93% 29.45 in 10.0 mi ESE 3.5 mph - 0.00 in Rain Light Rain
1:41 AM 35.6 °F 31.7 °F 35.6 °F 100% 29.47 in 9.0 mi South 4.6 mph - 0.02 in Rain Light Rain
1:53 AM 36.0 °F 32.1 °F 35.1 °F 97% 29.47 in 7.0 mi South 4.6 mph - 0.03 in Rain Light Rain
2:53 AM 35.1 °F 30.1 °F 33.1 °F 92% 29.50 in 10.0 mi South 5.8 mph - 0.03 in Rain Light Rain
3:12 AM 35.6 °F 30.7 °F 33.8 °F 93% 29.50 in 10.0 mi SSE 5.8 mph - 0.00 in Rain Light Rain
3:53 AM 35.1 °F 28.6 °F 33.1 °F 92% 29.52 in 10.0 mi SE 8.1 mph - 0.00 in   Overcast
4:32 AM 35.6 °F 32.8 °F 33.8 °F 93% 29.52 in 10.0 mi South 3.5 mph - N/A   Overcast
4:53 AM 35.1 °F 29.3 °F 33.1 °F 92% 29.53 in 10.0 mi Variable 6.9 mph - N/A   Overcast
5:09 AM 35.6 °F 29.9 °F 33.8 °F 93% 29.53 in 10.0 mi South 6.9 mph - N/A   Overcast
5:53 AM 36.0 °F 27.5 °F 33.1 °F 89% 29.55 in 10.0 mi SSE 12.7 mph - 0.00 in   Overcast
6:53 AM 35.1 °F 27.9 °F 33.1 °F 92% 29.56 in 10.0 mi ESE 9.2 mph - N/A   Overcast
7:53 AM 35.1 °F 28.6 °F 33.1 °F 92% 29.60 in 10.0 mi SE 8.1 mph - N/A   Overcast
8:53 AM 36.0 °F 29.6 °F 34.0 °F 93% 29.60 in 10.0 mi SSE 8.1 mph - 0.00 in   Overcast
9:53 AM 37.0 °F 31.0 °F 34.0 °F 89% 29.63 in 10.0 mi SSW 8.1 mph - 0.00 in Rain Light Rain
10:08 AM 37.4 °F 32.8 °F 33.8 °F 87% 29.63 in 10.0 mi Variable 5.8 mph - 0.01 in Rain Light Rain
10:24 AM 37.4 °F 32.8 °F 33.8 °F 87% 29.64 in 10.0 mi South 5.8 mph - 0.01 in Rain Light Rain
10:53 AM 37.0 °F 32.4 °F 34.0 °F 89% 29.65 in 8.0 mi South 5.8 mph - 0.04 in Rain Light Rain
11:31 AM 39.2 °F 33.0 °F 37.4 °F 93% 29.67 in 10.0 mi SW 9.2 mph - 0.00 in Rain Light Rain
11:53 AM 42.1 °F 35.2 °F 37.9 °F 85% 29.68 in 10.0 mi SSW 12.7 mph 19.6 mph 0.00 in   Overcast
12:53 PM 44.1 °F 38.1 °F 37.0 °F 76% 29.72 in 10.0 mi South 11.5 mph 18.4 mph N/A   Scattered Clouds
1:48 PM 42.8 °F 37.5 °F 37.4 °F 81% 29.76 in 10.0 mi SSW 9.2 mph 20.7 mph 0.01 in Rain Light Rain
1:53 PM 43.0 °F 37.2 °F 37.0 °F 80% 29.77 in 10.0 mi SW 10.4 mph 17.3 mph 0.01 in   Mostly Cloudy
2:25 PM 39.2 °F 31.6 °F 33.8 °F 81% 29.79 in 9.0 mi SW 12.7 mph - 0.01 in Rain Light Rain
2:50 PM 42.8 °F 37.5 °F 35.6 °F 76% 29.81 in 10.0 mi SW 9.2 mph - 0.02 in   Scattered Clouds
2:53 PM 42.1 °F 36.1 °F 36.0 °F 79% 29.81 in 10.0 mi SW 10.4 mph - 0.02 in   Partly Cloudy
3:53 PM 41.0 °F 33.1 °F 33.1 °F 73% 29.84 in 10.0 mi SW 15.0 mph 20.7 mph N/A   Clear
4:53 PM 41.0 °F 33.9 °F 34.0 °F 76% 29.88 in 10.0 mi SW 12.7 mph 17.3 mph 0.00 in Rain Light Rain
5:15 PM 39.2 °F 32.5 °F 33.8 °F 81% 29.87 in 10.0 mi SW 10.4 mph - 0.00 in   Mostly Cloudy
5:24 PM 39.2 °F 32.5 °F 33.8 °F 81% 29.87 in 10.0 mi WSW 10.4 mph - 0.00 in   Mostly Cloudy
5:53 PM 41.0 °F 36.4 °F 32.0 °F 70% 29.86 in 10.0 mi SW 6.9 mph - 0.00 in   Clear
6:53 PM 39.9 °F 35.8 °F 30.9 °F 70% 29.87 in 10.0 mi ENE 5.8 mph - N/A   Partly Cloudy
7:53 PM 37.0 °F - 32.0 °F 82% 29.88 in 10.0 mi Calm Calm - N/A   Mostly Cloudy
8:53 PM 32.0 °F - 30.9 °F 96% 29.89 in 10.0 mi Calm Calm - N/A   Clear
9:53 PM 30.9 °F - 28.9 °F 92% 29.90 in 10.0 mi Calm Calm - N/A   Clear
10:53 PM 30.0 °F - 28.9 °F 96% 29.91 in 10.0 mi Calm Calm - N/A   Mostly Cloudy
11:53 PM 30.9 °F - 28.9 °F 92% 29.89 in 10.0 mi Calm Calm - N/A   Clear